SL-16 DEB, 22608

Orbit data source: Space-Track

SL-16 DEB, 22608 is space debris in LEO originally from a launch on Fri, 26 Mar 1993 UTC launched from the Tyuratam Missile And Space Complex (TTMTR). Debris objects in space refer to the collection of defunct objects orbiting the Earth. Examples of debris include non-operational satellites, rocket bodies, and fragments generated from explosions, collisions, or faulty payload assembly.

Loading next visibility...
Identifier
22608, 1993-016S
Orbit
LEO
Country
Flag of CISCIS
Related business
Manufacturer
Unknown
Mission
Spacecraft
Bus & Motor
Unknown
Mass
Unknown
Launch date (UTC)
1993-03-26 (33 years ago)
Launch vehicle
Unknown
Launch site
Tyuratam Missile And Space Complex (TTMTR)
Object type
Payload
Rocket body
Debris
Shape & HBR
Unknown shape, 0.3 m
Radar Cross Section
Medium (>0.1 m² and <1 m²)

Expand to show TLE details & history
Last TLE update: 20 hours ago

TLE from 20 hours ago
0 SL-16 DEB
1 22608U 93016S   25302.19237097  .00000012  00000-0  46806-4 0  9998
2 22608  71.0031 266.5609 0130245 168.4053 285.2072 13.84711446646964
Epoch: 2025-10-29T04:37Z
TLE epoch observation values (Epoch: 2025-10-29T04:37:00.851Z)
Latitude
70.977°
Longitude
-103.82625°
Altitude
935.073 km
Speed
7.403 km/s
True Right ascension
00h 12m 47s
True Declination
70° 52' 24"
Sunlit
Object was in full shadow at epoch
Visualization orbit readout
Latitude
Unknown
Longitude
Unknown
Altitude
Unknown
Speed
Unknown
Apparent Right ascension
Unknown
Apparent Declination
Unknown
Sunlit
N/A
Visualization observer readout
Local Sidereal Time
19:43:35
Azimuth
Unknown
Elevation
Unknown
Doppler factor
Unknown
Orbital elements
Apogee altitude
1,040.56 km
Perigee altitude
849.795 km
Semi-major axis
7,323.314 km
Eccentricity
0.01302
Inclination
71.0031°
RAAN
266.5609°
Arg. of periapsis
168.4053°
True anomaly
283.76094°
Mean anomaly
285.2072°
Eccentric anomaly
284.48467°
Mean motion
3.46323 °/min
Orbital period
103.95 mins
BSTAR
0.000046806
Loading maneuver chart data...
Computing Atmospheric mass density...
Loading historical data...
Loading historical data...
Loading historical data...
Loading historical data...
Loading historical data...
Loading historical data...
Loading historical data...

Documentation

Showing up to 5 results
|